Find Starlink 1152

NORAD ID: 45096 Int'l Des: 2020-006 Owner: SPXS Country: US Constellation: starlink operational
LEOCIRCULAR

Current View

Loading 3D Globe...

About Starlink 1152

Description loading...

Upcoming Passes

Passes for default location (London). Set your location on the main map for personalized predictions.

Altitude History

Loading altitude history...

Two-Line Element Set

1 45096U 20006BE 26150.06573061 .00070224 00000-0 13319-2 0 9998
2 45096 53.0334 179.8156 0004536 36.0218 324.1094 15.47693886350153
Epoch: May 30, 2026 • Age: 9 hours

Current Status

Altitude 441.2 km
Velocity 7.65 km/s
Sub-Earth Point -44.65°S, 2.33°E
Launch Date Jan 29, 2020
Age 6.3 years
Type internet

Technical Details

Classification Payload
Mass 260.00 kg
Dry Mass 248.00 kg
Total Mass 260.00 kg
Length 0.20 m
Diameter 2.80 m
Span 9.00 m
Shape Box + pan
Manufacturer SPXS
Bus Type Starlink
Phase Status In Orbit
Owner/State SPXS/US

Most Searched